Погода в Западном Кончезеро

Россия / Республика Карелия     62°06′28″N   34°00′32″E
темп.,
°C
ветер,
м/с
пор.,
м/с
влажн.,
%
обл.,
%
осадки,
мм/ч
давл.,
гПа
погр.,
м
12 мая, ср
ср1200:00+13ююз2117664 0.0 1023227
03:00+11юз210857 0.0 1024197
06:00+13ююз29827 0.0 1024242
09:00+19ююз35585 0.0 1024523
12:00+23ююз35382 0.0 10231178
15:00+24ююз34330 0.0 10231589
18:00+24ююз24360 0.0 10221529
21:00+17юз11630 0.0 102111
13 мая, чт
чт1300:00+14ю11710 0.0 102211
03:00+13юв11750 0.0 102110
06:00+15юв11722 0.0 102034
09:00+21юв23521 0.0 1020478
12:00+23вюв464510 0.0 10181649
15:00+22вюв455193 0.0 10171017
18:00+21юв245312 0.0 1016390
21:00+16в247085 0.0 101590
14 мая, пт
пт1400:00+14в11755 0.0 101317
03:00+12всв259111 0.0 1011115
06:00+12юв2693100 0.6 1010231
09:00+14ююв379098 2.6 1011600
12:00+18ююз46510 0.1 10111657
15:00+18ююз5743100 0.1 10112520
18:00+17ююз374919 0.0 10111417
21:00+13юз376590 0.0 1012209
15 мая, сб
сб1500:00+12вюв247688 0.0 1011135
03:00+12юв297398 0.0 1010282
06:00+12юв167642 0.0 1009223
09:00+17юв365774 0.0 1008752
12:00+20юв345225 0.1 10081288
15:00+21вюв325778 1.4 10061042
18:00+18в237297 2.1 1006304
21:00+14св1191100 2.4 100518
16 мая, вс
вс1600:00+12ссз26973 0.0 1005154
03:00+11с38962 0.0 1005251
06:00+10с389234 0.0 1006316
09:00+11с468594 0.0 1007484
12:00+13ссз347074 0.0 1008798
15:00+16с345674 0.0 10091243
18:00+12с566316 0.0 1010750
21:00+6с48825 0.0 1013456